Weather History for Sturgeon Bay, WI

Change the Weather History Date:

Wednesday, October 3, 2012

  Actual Average Record
Temperature  
Mean Temperature 52 °F -  
Max Temperature 60 °F 63 °F 85 °F (1953)
Min Temperature 44 °F 44 °F 23 °F (1952)
Degree Days  
Heating Degree Days 13    
Growing Degree Days 2 (Base 50)    
Moisture  
Dew Point 48 °F    
Average Humidity 94    
Maximum Humidity 100    
Minimum Humidity 82    
Precipitation  
Precipitation 0.00 in - - ()
Sea Level Pressure  
Sea Level Pressure 29.97 in    
Wind  
Wind Speed 2 mph (North)    
Max Wind Speed 8 mph    
Max Gust Speed -    
Visibility 2 miles    
Events      
Averages and records for this station are not official NWS values.
T = Trace of Precipitation, MM = Missing Value Source: NWS Daily Summary

Daily Weather History Graph

Daily Weather History Graph

Search for Another Location

Airport:

Trip Planner

Search our weather history database for the weather conditions in past years. The results will help you decide how hot, cold, wet, or windy it might be!

Date:

Astronomy

Oct. 03, 2012 Rise Set
Actual Time 6:50 AM CDT 6:25 PM CDT
Civil Twilight 6:21 AM CDT 6:54 PM CDT
Nautical Twilight 5:47 AM CDT 7:28 PM CDT
Astronomical Twilight 5:13 AM CDT 8:02 PM CDT
Moon 8:06 PM CDT (10/3) 10:23 AM CDT (10/3)
Length of Visible Light 12h 33m
Length of Day
11h 34m
Waning Gibbous, 88% of the Moon is Illuminated
Oct 3
Waning Gibbous
Oct 8
Last Quarter
Oct 15
New
Oct 21
First Quarter
Oct 29
Full

Hourly Weather History & Observations

Time (CDT) Temp. Windchill Dew Point Humidity Pressure Visibility Wind Dir Wind Speed Gust Speed Precip Events Conditions
1:55 AM 46.4 °F - 44.6 °F 93% 29.96 in 0.2 mi Calm Calm - N/A   Unknown
2:15 AM 46.4 °F - 44.6 °F 93% 29.95 in 0.2 mi Calm Calm - N/A   Mostly Cloudy
2:35 AM 46.4 °F - 44.6 °F 93% 29.95 in 0.2 mi Calm Calm - N/A   Overcast
2:55 AM 46.4 °F - 44.6 °F 93% 29.95 in 0.2 mi Calm Calm - N/A   Overcast
3:15 AM 46.4 °F - 44.6 °F 93% 29.95 in 0.2 mi Calm Calm - N/A   Overcast
3:35 AM 44.6 °F - 44.6 °F 100% 29.95 in 0.2 mi Calm Calm - N/A   Overcast
3:55 AM 46.4 °F - 44.6 °F 93% 29.95 in 0.8 mi Calm Calm - N/A   Mostly Cloudy
4:15 AM 44.6 °F - 42.8 °F 93% 29.95 in 0.2 mi Calm Calm - N/A   Overcast
4:35 AM 44.6 °F - 44.6 °F 100% 29.95 in 0.2 mi Calm Calm - N/A   Overcast
4:55 AM 46.4 °F 42.4 °F 42.8 °F 87% 29.96 in 0.2 mi NNW 8.1 mph - N/A   Overcast
5:15 AM 46.4 °F 42.9 °F 44.6 °F 93% 29.97 in 0.2 mi NNW 6.9 mph - N/A   Overcast
5:55 AM 48.2 °F - 46.4 °F 93% 29.98 in 0.2 mi North 3.5 mph - N/A   Overcast
6:15 AM 53.6 °F - 51.8 °F 94% 29.99 in 0.8 mi North 5.8 mph - N/A   Overcast
6:35 AM 53.6 °F - 53.6 °F 100% 29.99 in 2.0 mi North 5.8 mph - N/A   Overcast
6:55 AM 53.6 °F - 51.8 °F 94% 29.99 in 0.5 mi North 5.8 mph - N/A   Overcast
7:15 AM 53.6 °F - 51.8 °F 94% 29.99 in 0.2 mi North 3.5 mph - N/A   Overcast
7:35 AM 53.6 °F - 51.8 °F 94% 29.99 in 0.2 mi North 4.6 mph - N/A   Overcast
7:55 AM 53.6 °F - 51.8 °F 94% 30.00 in 0.2 mi NE 3.5 mph - N/A   Overcast
8:15 AM 53.6 °F - 53.6 °F 100% 30.00 in 3.0 mi Calm Calm - N/A   Overcast
8:35 AM 55.4 °F - 53.6 °F 94% 30.00 in 5.0 mi East 3.5 mph - N/A   Overcast
6:15 PM 60.8 °F - 55.4 °F 82% 29.97 in 10.0 mi East 5.8 mph - N/A   Overcast
11:55 PM 55.4 °F - 53.6 °F 94% 29.99 in 10.0 mi West 3.5 mph - N/A   Overcast